Regional Weather Roundup
Issued by NWS Newport/Morehead, NC

Current Version | Previous Version | Text Only | Print | Product List | Glossary On
Versions: 1 2 3 4 5 6 7 8 9 10 11 12 13 14 15 16 17 18 19 20 21 22 23 24 25 26 27 28 29 30 31 32 33 34 35 36 37 38 39 40 41 42 43 44 45 46 47 48 49 50
971 ASUS42 KMHX 250625 RWRMHX WEATHER ROUNDUP FOR EASTERN NORTH CAROLINA NATIONAL WEATHER SERVICE NEWPORT/MOREHEAD CITY NC 200 AM EDT WED APR 25 2018 NOTE: "FAIR" INDICATES FEW OR NO CLOUDS BELOW 12,000 FEET WITH NO SIGNIFICANT WEATHER AND/OR OBSTRUCTIONS TO VISIBILITY NCZ015>017-031-032-045>047-102-103-250700- NORTH COAST CITY SKY/WX TMP DP RH WIND PRES REMARKS EDENTON NOT AVBL ELIZABETH CITY MOCLDY 63 62 97 E7 29.79F KITTY HAWK CLOUDY 58 58 100 MISG 29.79F FOG MANTEO MOCLDY 60 59 98 E3 29.81F $$ NCZ045>047-081-094-103-104-250700- CENTRAL COAST CITY SKY/WX TMP DP RH WIND PRES REMARKS FRISCO LGT RAIN 67 64 90 S16G24 29.81S $$ NCZ095-097-098-100-101-250700- SOUTHERN COAST CITY SKY/WX TMP DP RH WIND PRES REMARKS BEAUFORT FAIR 61 60 97 CALM 29.80F CEDAR ISLAND NOT AVBL JACKSONVILLE MOCLDY 63 61 93 S7 29.77F PINEY ISLAND NOT AVBL WILMINGTON FAIR 63 59 87 SW8 29.78F $$ NCZ011>013-027>030-043-044-078>080-089-090>093-098-250700- COASTAL PLAIN CITY SKY/WX TMP DP RH WIND PRES REMARKS AHOSKIE CLOUDY 62 62 100 SE3 29.78F CLINTON NOT AVBL ELIZABETHTOWN FAIR 61 60 97 MISG 29.77F GOLDSBORO NOT AVBL GREENVILLE FAIR 63 63 100 S5 29.79F HAVELOCK NOT AVBL KENANSVILLE CLOUDY 61 61 100 CALM 29.77F FOG KINSTON CLOUDY 62 61 96 S5 29.78F NEW BERN FAIR 59 59 100 SE3 29.79F RICHLANDS FAIR 60 59 96 S6 29.78F ROCKY MOUNT MOCLDY 61 60 97 CALM 29.77F FOG WASHINGTON FAIR 63 61 96 CALM 29.77F WHITEVILLE FAIR 61 59 92 SW3 29.77F $$ AMZ130-135-150-152-154-156-158-170-250-252-270-ANZ085-086-088-633-658-670-250700- MARINE OBSERVATIONS STATION/POSITION TIME TEMP WIND PRES WAVE SWELL AIR SEA DIR/SP/G HT/PER HT/PER (UTC) (F) (DEG/KT/KT) (MB) (FT/S) (FT/S) CHESAPEAKE LIGHT NOT AVBL 64 E VA BEACH 0550 58 50 170/ 21/ 27 1009.2 13/10 10/10 DUCK 0600 57 50 110/ 12/ 13 1008.7 2 E DUCK 0600 51 N/A 9/10 3/11 OREGON INLET 0554 55 54 50/ 3/ 5 1009.2 13E OREGON INLT 0548 53 N/A 12/10 13/10 HATTERAS CG 0600 67 62 170/ 13/ 22 1009.0 DIAMOND BUOY 0610 67 70 200/ 21/ 27 1009.5 CAPE LOOKOUT 0600 160/ 2/ 3 1009.8 BEAUFORT LAB 0600 62 63 150/ 2/ 2 1009.3 30 SE NEW RVR IN 0608 68 67 220/ 10/ 16 1006.8 30 SE NEW RVR IN 0600 67 N/A 8/ 9 3/11 27 SE WRIGHTSVLE 0608 68 65 220/ 16/ 21 1008.9 5 SE WRIGHTSVLE 0608 64 62 230/ 12/ 16 1007.7 225 S CAPE HAT 0610 72 73 170/ 21/ 25 1011.2 41 SE CHARLESTON 0610 69 250/ 14/ 19 1009.7 $$

USA.gov is the U.S. government's official web portal to all federal, state and local government web resources and services.